Theta_e
300 301 301 301 302 302 301 301 301 300 301 296 293 298 298 298 295 304 308 312 309 301 293 296 293 292 294 297 295 294 292 291 291 292 292 293 295 292 293 292 291 292 293 290 289 290 287 288 288 287 289 292 295 297 298 297 294 294 288 293 291 294 285 281 285 287 289 292 293 293 290 287 286 286 287 286 285 286 285 284 285 282 282 282 281 279 282
299 299 300 300 300 301 301 300 300 300 299 295 296 296 296 298 298 301 308 311 307 298 288 289 291 293 295 294 293 294 293 293 291 292 292 292 290 291 289 290 295 291 293 291 290 291 286 290 291 288 290 289 296 297 297 298 293 293 287 291 289 286 285 287 281 282 283 284 287 287 290 287 284 286 288 287 288 288 288 287 286 281 282 283 280 275 281
299 299 299 299 300 300 300 300 299 299 299 299 295 292 297 296 299 300 304 307 303 293 297 294 291 292 292 292 292 293 293 293 295 295 290 293 292 290 288 292 291 290 291 291 292 291 291 287 288 288 287 289 289 293 296 296 294 295 294 295 293 288 286 284 279 276 275 275 276 278 281 284 285 284 287 287 286 285 284 281 283 279 283 284 281 280 287
299 299 299 299 299 299 299 300 300 299 299 299 293 290 292 291 282 288 297 302 299 299 300 296 291 289 290 290 292 294 291 294 293 294 293 296 291 293 290 288 290 288 288 287 289 290 290 289 286 288 284 286 287 290 289 293 293 294 295 291 291 285 284 285 285 282 280 282 285 287 288 284 283 283 282 284 286 287 286 285 282 280 283 282 284 285 285
300 299 299 299 299 298 298 299 299 300 301 299 291 289 290 290 286 286 283 297 297 294 297 295 293 290 293 286 290 290 291 291 291 294 288 290 292 289 292 290 288 286 289 288 289 291 289 289 288 286 287 288 288 288 288 289 290 293 291 290 285 283 284 286 287 286 286 287 287 289 289 285 286 286 286 287 285 284 283 281 280 286 282 278 286 287 284
299 299 299 299 299 299 299 298 298 299 299 300 293 286 291 282 283 288 289 286 283 288 289 295 293 292 291 287 289 288 288 288 287 289 291 288 289 287 285 290 291 290 288 287 284 286 287 285 286 289 285 284 284 284 284 287 289 288 286 287 286 284 283 286 287 285 288 288 288 288 288 287 286 286 286 285 287 286 284 285 286 286 281 279 285 286 284
299 299 299 299 299 299 299 298 298 298 298 300 287 283 284 287 285 286 289 285 288 288 288 289 291 292 293 290 290 286 286 285 288 286 284 287 285 291 284 287 288 288 286 285 284 286 283 283 285 283 281 280 281 280 283 285 285 285 284 285 285 284 282 285 285 283 285 286 287 288 286 286 286 286 287 287 287 286 287 286 288 287 285 286 286 285 285
300 299 299 299 298 298 298 298 298 298 298 293 287 285 283 280 284 281 289 287 285 284 285 287 286 287 292 286 288 290 288 286 288 287 287 283 284 288 287 287 282 283 283 286 284 286 286 284 281 284 282 281 284 283 284 283 282 283 282 283 284 285 282 287 284 282 282 284 285 285 285 285 284 286 287 287 287 287 287 287 287 286 286 287 286 285 285
300 299 299 299 299 298 298 298 298 298 298 290 288 283 286 286 289 291 284 282 282 281 280 284 285 285 286 286 288 289 288 288 290 288 291 287 285 286 285 285 284 284 283 284 285 288 284 284 283 284 283 278 284 281 281 285 280 282 280 284 282 284 280 284 282 279 279 283 282 283 284 284 283 283 284 284 285 283 285 285 287 285 284 285 284 282 277
300 299 299 299 299 298 298 298 298 297 298 291 289 284 285 282 284 290 288 280 284 278 279 278 281 281 287 288 286 285 284 284 285 283 289 286 288 286 285 284 283 283 284 283 285 285 284 285 286 286 286 287 285 285 285 284 282 281 280 283 280 280 280 279 279 276 276 281 282 281 281 280 277 279 282 284 285 286 287 287 284 280 282 280 276 273 277
299 299 299 298 298 298 298 298 299 298 297 288 285 283 283 283 282 282 285 279 280 281 279 277 278 282 279 281 282 284 283 283 283 282 283 286 285 287 285 283 282 281 282 284 287 287 287 287 287 287 286 285 285 285 285 285 285 283 281 278 277 280 279 278 282 275 275 279 279 279 275 269 271 282 278 281 277 277 275 274 275 278 280 277 277 276 279
299 298 298 299 299 298 298 298 298 299 300 292 290 286 285 284 282 280 279 277 278 281 278 276 277 278 278 278 279 279 279 280 281 284 279 283 284 285 285 284 284 278 287 285 286 287 287 288 287 286 285 284 284 284 283 282 282 285 284 281 279 279 278 276 278 274 272 275 275 271 266 268 275 277 279 278 279 278 274 275 276 277 279 278 277 277 277
298 298 298 298 298 298 298 298 298 299 300 293 292 287 288 289 286 282 279 277 273 276 275 276 279 277 277 277 277 277 279 279 280 283 284 283 282 283 285 285 283 285 286 284 286 284 280 278 279 278 277 278 279 280 279 279 280 281 282 284 280 277 276 275 273 273 272 270 269 264 265 276 278 278 278 279 277 278 277 275 275 276 278 277 276 277 277
299 298 298 298 298 298 299 299 299 299 299 298 292 290 288 289 286 284 281 276 275 278 277 277 277 276 277 277 277 277 278 278 278 279 279 281 280 281 283 286 287 287 285 285 283 281 275 275 267 268 269 273 269 270 274 277 278 279 279 280 282 280 279 277 273 278 270 272 272 271 278 276 276 271 275 276 273 273 274 270 275 276 278 277 276 277 277
300 301 299 299 299 299 298 298 299 299 299 300 293 291 289 289 289 285 284 283 276 278 279 273 277 276 277 276 277 275 275 276 276 276 279 278 279 279 281 282 284 284 282 279 276 277 273 270 264 265 262 263 260 261 274 271 277 279 279 279 282 283 279 280 276 273 279 273 271 272 272 270 272 272 275 279 280 280 279 276 273 277 277 279 276 276 276
300 300 300 300 300 299 299 299 299 299 299 298 294 291 290 291 290 289 286 283 280 273 278 281 280 277 276 276 278 276 274 276 276 276 276 275 275 278 279 281 281 281 280 279 280 278 275 272 268 269 265 262 263 266 261 272 268 276 279 279 279 280 282 279 275 272 273 270 268 268 268 270 271 269 274 278 279 278 278 275 269 277 276 279 277 275 277
300 300 300 300 300 299 300 299 299 299 299 298 292 291 289 293 290 287 284 283 282 276 282 280 281 280 278 276 280 277 278 276 279 275 274 275 276 276 275 276 277 280 279 278 277 274 269 268 266 266 266 270 263 262 269 266 261 265 273 272 270 272 271 271 271 270 270 269 267 266 270 270 274 273 276 278 277 278 278 267 268 275 275 279 278 276 277
300 300 300 300 300 299 300 300 300 299 299 300 295 289 290 292 292 288 284 283 280 279 284 282 279 278 277 279 278 279 278 274 274 275 274 273 272 273 272 273 274 277 280 274 273 267 265 264 264 265 264 272 272 272 263 270 263 263 266 269 265 266 265 267 267 267 268 271 267 269 270 274 270 270 274 275 277 274 267 264 270 274 274 277 278 276 277
300 300 301 300 299 300 300 300 299 300 299 300 295 289 289 292 292 290 287 284 282 277 284 285 286 281 281 282 279 280 279 278 275 274 269 271 271 273 274 272 277 270 275 271 271 260 263 261 266 261 263 262 272 264 273 269 269 273 271 269 269 267 267 266 269 265 266 266 265 266 269 272 269 272 272 275 273 264 265 268 273 272 274 274 275 275 277
299 299 299 300 299 299 300 300 300 299 299 299 297 288 289 292 292 290 286 282 283 280 283 282 283 280 282 280 278 277 277 278 277 276 272 270 272 273 275 271 272 268 266 271 268 265 262 264 266 263 261 259 263 273 267 269 272 269 270 271 268 266 265 260 262 263 264 264 262 262 260 267 271 273 274 273 266 266 274 272 273 275 275 274 274 275 275
299 300 299 299 299 300 300 299 299 299 299 300 298 290 288 292 292 291 290 287 283 279 281 286 284 284 283 282 283 282 280 278 278 276 278 278 277 273 268 269 269 262 262 268 265 267 265 261 264 264 267 265 266 265 258 255 258 267 269 266 266 268 261 261 263 267 263 262 261 260 264 270 275 272 267 271 274 276 275 273 274 275 277 276 275 275 276
299 299 299 299 299 299 298 299 300 299 299 300 298 291 288 291 292 292 291 289 284 281 280 284 285 284 286 287 286 286 285 283 283 284 279 276 275 278 274 272 263 263 264 265 263 262 262 260 260 259 260 262 261 263 258 260 261 261 263 267 262 269 266 266 263 266 266 262 268 272 274 275 277 276 275 276 276 275 274 276 276 276 275 277 275 275 275
299 299 298 299 300 299 299 299 299 298 299 300 296 290 287 290 290 293 289 284 286 286 286 284 285 285 287 286 286 286 286 287 286 284 284 280 276 278 278 277 276 277 275 277 272 269 268 265 267 265 261 261 267 263 258 264 259 259 263 270 269 272 271 271 269 268 273 273 274 276 275 276 276 277 277 275 275 275 276 276 275 276 277 276 275 275 275
298 299 298 298 299 299 299 298 297 298 299 299 297 290 289 291 291 289 286 286 283 280 284 285 282 280 282 282 286 288 286 285 286 287 288 286 278 278 279 280 281 280 276 280 279 276 268 267 269 269 269 268 263 263 264 262 264 265 264 264 268 270 273 269 269 272 267 263 273 272 274 275 276 276 276 275 276 276 276 276 276 277 276 274 275 275 275
297 297 298 298 298 298 298 298 298 298 299 297 297 294 287 287 292 290 285 279 280 279 275 278 281 285 287 289 288 286 287 289 290 288 287 286 284 280 278 281 283 280 278 279 281 277 269 270 269 268 269 272 271 266 271 267 265 272 265 268 267 268 275 270 271 271 269 268 273 273 274 275 275 275 275 275 276 276 276 277 277 276 274 273 273 273 273
297 297 297 297 297 298 298 299 299 298 297 298 297 286 286 287 291 291 287 286 284 281 276 275 277 284 284 283 282 285 287 288 288 287 287 287 287 286 284 283 280 281 281 281 280 278 275 268 268 268 270 271 279 269 268 273 270 273 271 269 274 272 274 262 268 269 271 273 274 274 275 275 275 276 276 276 276 276 275 276 275 273 273 273 273 273 272
297 297 297 298 298 297 297 297 297 297 298 297 295 289 288 289 291 288 286 285 281 277 278 275 278 278 278 281 283 283 285 286 286 286 285 286 286 286 285 283 282 281 280 279 279 275 271 272 272 271 273 272 276 269 272 267 272 265 266 273 274 271 269 273 269 264 266 268 271 274 266 267 273 274 275 274 274 274 274 273 271 270 271 271 270 270 271
296 296 297 297 297 296 296 297 297 298 298 297 295 290 288 288 290 290 289 288 284 277 275 273 273 275 278 273 282 284 285 285 285 284 284 284 285 285 283 283 282 280 280 279 275 275 273 272 271 276 276 272 272 271 276 276 275 271 271 273 275 272 273 273 269 268 267 273 275 275 275 274 275 276 275 272 272 272 271 270 270 270 269 269 268 268 268
296 296 296 297 297 297 297 298 297 297 296 295 286 285 285 287 290 292 291 288 287 283 280 278 275 271 272 274 281 282 283 285 284 284 283 283 283 283 282 282 281 282 282 281 279 278 276 276 279 276 273 277 273 270 274 268 270 268 272 276 276 276 277 275 275 275 275 276 275 274 273 273 275 275 271 271 271 270 270 269 268 268 267 267 267 267 267
296 297 297 297 297 297 297 297 297 297 296 290 285 284 281 284 288 290 293 291 288 285 279 276 273 276 277 278 275 279 281 283 283 282 282 282 282 282 282 282 282 283 282 280 279 274 278 277 278 279 279 280 274 271 271 272 270 272 276 277 277 277 277 278 278 275 274 277 274 273 273 274 273 270 270 270 267 267 267 266 266 266 266 266 266 266 266
295 296 296 296 297 296 296 297 296 296 296 286 285 279 277 275 283 290 293 291 288 283 279 279 276 280 276 277 277 278 280 282 280 280 281 281 282 282 282 282 282 282 278 280 279 278 279 275 277 277 279 279 278 271 271 270 269 271 275 276 276 276 277 277 278 275 274 274 270 268 267 269 270 269 270 266 265 266 265 265 265 266 266 266 265 265 266
295 296 296 296 296 296 296 296 296 296 290 286 284 282 283 282 285 288 292 292 287 282 278 275 275 275 273 274 274 279 281 281 282 281 279 282 279 281 280 281 279 282 281 278 280 278 276 278 277 277 276 279 279 269 271 271 269 271 276 276 277 276 276 275 274 268 266 266 267 269 270 272 268 269 268 265 265 265 264 264 265 264 265 265 265 264 264
296 295 296 295 295 295 295 295 295 294 287 289 294 295 294 295 294 293 293 290 286 282 282 277 272 274 271 268 269 272 279 276 275 279 275 281 277 278 277 280 280 280 285 279 276 274 278 278 278 274 277 279 274 274 272 271 272 276 277 277 277 272 271 268 265 264 264 263 266 267 270 269 265 266 264 264 264 263 263 264 264 264 262 261 261 261 261
295 294 295 295 295 295 295 295 296 296 294 288 283 285 290 293 294 294 291 288 283 283 280 275 272 272 271 269 266 270 281 276 274 277 270 276 276 278 273 276 279 276 280 277 279 278 277 276 274 272 274 273 277 270 269 272 276 276 277 276 266 265 267 266 265 262 262 262 262 262 263 263 263 263 263 263 263 263 263 262 261 259 259 259 260 261 261
295 295 295 295 295 295 295 294 288 286 284 286 285 286 290 294 294 294 291 285 278 276 275 274 274 270 270 267 267 270 276 277 273 276 273 273 280 277 276 270 273 274 275 283 276 277 275 276 277 269 270 269 269 269 271 273 274 275 276 272 263 264 263 265 263 260 260 261 260 260 261 261 260 260 261 261 261 261 260 259 260 259 259 259 260 260 260
294 294 294 294 294 293 287 289 286 284 283 283 283 291 294 294 293 291 290 288 283 275 275 273 273 271 271 268 267 269 280 275 277 276 276 269 269 274 274 272 269 275 278 278 273 277 274 278 271 268 269 267 268 270 272 270 271 267 262 261 259 260 259 260 259 258 258 258 257 258 258 259 259 259 259 259 260 259 259 259 259 258 258 258 259 259 259
294 294 294 292 287 285 282 282 287 285 282 287 289 294 294 292 287 288 286 284 284 284 275 270 269 270 273 270 271 269 275 267 277 271 270 269 268 266 268 267 270 274 270 266 264 268 275 280 272 268 264 266 269 262 258 258 260 260 260 258 258 258 258 258 258 257 254 255 255 258 257 257 256 257 258 258 258 259 257 257 257 257 256 256 256 256 256
294 292 284 282 281 279 278 282 281 284 292 292 292 286 283 285 278 281 281 278 281 281 277 276 273 273 275 272 268 276 276 269 275 269 264 266 269 263 266 268 267 273 264 265 269 276 270 268 267 269 269 264 258 258 258 257 258 258 258 258 257 257 257 257 256 255 253 255 255 255 254 255 255 256 256 256 256 256 256 257 257 256 256 256 256 256 255
291 286 283 282 280 277 278 277 288 293 289 288 286 280 277 278 276 273 273 276 278 274 278 275 273 276 274 272 271 279 275 267 266 266 266 273 271 263 265 264 269 271 263 261 264 275 264 263 262 262 268 261 259 257 258 258 257 257 257 257 257 257 257 256 256 255 253 253 254 254 253 254 254 254 255 255 255 256 256 256 255 255 255 255 254 254 254
282 280 280 279 278 278 285 285 293 289 285 280 278 277 272 277 273 269 275 269 269 269 273 271 277 275 276 273 272 271 278 273 269 267 267 265 275 266 267 264 267 265 258 261 265 270 263 259 260 259 263 262 259 256 257 256 255 255 256 255 256 256 256 255 255 256 256 255 256 255 255 255 255 255 254 254 253 253 253 253 254 254 254 254 254 254 253
282 281 280 278 277 278 281 279 280 282 280 276 274 275 272 268 271 271 271 267 267 266 270 270 274 273 276 277 275 271 279 278 268 264 266 266 272 269 263 263 270 261 258 258 267 261 257 254 257 259 264 257 254 255 255 254 254 254 254 255 254 254 255 254 255 254 254 253 253 253 253 252 252 253 253 253 253 252 252 253 253 253 253 252 252 253 254
284 283 281 283 281 278 276 276 276 274 275 276 271 268 271 269 267 265 268 266 267 263 263 269 267 271 271 276 274 276 270 271 267 269 263 261 271 265 260 262 265 262 261 265 260 255 259 258 256 257 256 253 254 253 252 251 253 253 253 253 253 253 253 253 253 252 253 252 252 253 253 252 252 252 252 252 252 252 252 252 252 252 252 252 253 253 253
289 285 284 278 277 276 278 273 276 274 269 269 268 264 269 265 268 266 265 266 262 264 265 269 268 275 272 271 265 269 272 276 271 268 263 261 273 266 260 261 260 259 263 261 260 259 258 258 256 260 253 253 253 252 253 252 253 253 253 253 253 253 253 253 252 252 252 252 252 252 252 252 252 252 252 252 251 251 251 252 252 251 252 252 252 252 252
285 283 278 276 275 275 277 266 274 269 268 266 265 263 265 263 264 262 261 263 261 263 266 271 270 273 269 269 269 268 266 272 276 263 262 267 264 261 261 257 259 263 260 258 258 259 259 256 258 254 251 252 252 253 253 252 252 252 251 253 252 252 253 253 253 253 252 253 252 252 252 251 251 251 251 251 251 250 250 250 251 251 252 252 252 252 253
278 275 274 273 270 275 271 265 271 267 265 266 269 263 264 263 264 263 267 264 264 266 266 267 268 271 268 266 263 266 273 262 270 264 262 265 261 260 258 259 259 257 260 261 254 253 254 259 252 250 252 250 253 252 252 251 250 250 251 251 251 251 252 252 252 252 252 252 251 252 251 251 251 251 251 251 251 251 250 250 251 251 251 251 252 252 254
275 273 272 268 266 271 268 263 260 257 263 268 266 264 263 265 265 266 263 260 263 264 265 264 264 266 265 264 266 265 264 263 264 266 266 262 261 261 263 261 262 262 258 255 256 259 263 258 252 251 252 252 252 252 250 250 250 249 249 249 250 250 250 250 250 251 252 252 252 252 251 251 251 251 250 251 250 250 250 250 251 251 251 251 252 253 255
276 276 272 271 267 269 268 263 261 260 260 258 258 260 266 266 261 262 259 259 258 261 261 262 264 267 266 265 266 266 264 263 261 264 264 261 261 263 268 262 260 258 257 256 254 255 256 252 250 252 252 251 250 248 248 249 249 249 250 250 250 250 251 251 251 251 251 252 251 251 251 251 251 251 251 250 250 250 250 251 251 251 252 252 253 255 256
272 274 272 266 265 267 266 264 259 257 257 257 257 258 258 260 263 261 260 260 262 265 264 264 266 265 265 267 266 266 265 264 263 264 265 264 265 260 261 260 260 258 253 255 261 255 253 252 251 251 250 250 248 248 248 249 248 249 249 250 250 250 250 250 250 250 251 250 250 250 250 250 250 250 250 250 250 250 251 251 251 253 253 254 254 256 256
275 270 268 266 266 266 263 260 262 261 258 258 259 259 259 262 260 258 258 259 260 260 262 263 265 265 264 268 266 268 266 267 262 262 264 261 260 260 259 257 253 254 256 254 255 250 250 250 249 248 247 247 247 248 249 249 249 249 249 249 250 250 250 250 250 250 250 250 250 250 250 250 250 250 250 250 249 250 252 252 252 253 254 254 255 256 256
271 268 265 261 262 261 259 261 263 258 258 257 258 258 259 260 259 257 259 258 258 258 265 269 272 271 267 266 263 263 260 261 262 265 261 260 258 255 254 252 252 256 254 246 245 247 247 248 247 245 245 245 247 248 248 249 250 250 250 250 250 250 250 250 250 250 250 250 249 249 249 249 249 249 249 249 250 251 252 252 253 253 254 256 256 256 256
267 266 261 259 260 261 264 263 263 261 260 260 260 259 259 259 260 258 261 259 258 259 262 262 265 262 263 264 262 260 262 263 260 260 259 257 255 254 255 257 254 247 248 250 248 248 246 245 244 244 244 245 246 248 249 249 248 248 249 249 249 250 250 250 250 250 250 249 249 250 248 248 249 249 250 250 251 251 252 253 254 255 256 256 256 256 256
266 262 259 258 258 257 258 259 259 260 260 261 258 258 261 257 259 258 261 261 260 265 263 260 260 261 261 260 261 258 260 261 259 255 254 255 250 252 249 248 249 249 247 245 245 244 244 244 242 244 243 245 247 246 246 246 246 246 247 247 248 248 248 249 249 249 248 248 248 247 248 248 249 249 250 251 251 251 252 252 255 256 256 256 256 256 256
Wind_Speed
6 8 8 8 9 9 8 10 12 13 16 5 4 2 2 7 6 1 4 7 12 8 7 7 6 8 4 3 4 0 3 3 3 3 2 3 2 2 4 4 5 5 8 3 5 6 7 7 8 4 7 9 13 8 10 2 3 2 2 5 3 3 2 2 12 5 7 10 11 12 5 4 6 5 8 5 11 13 13 12 10 11 8 10 9 13 4
4 6 7 8 7 9 9 8 9 10 12 3 4 2 2 2 4 1 2 7 2 6 11 10 11 8 5 4 5 1 2 3 4 5 3 4 1 4 2 2 8 6 5 5 7 4 8 5 14 7 5 7 8 13 10 7 5 3 4 6 3 4 2 6 8 5 3 3 6 7 8 3 5 10 10 12 13 13 13 12 6 12 11 14 13 18 6
6 5 6 7 7 7 8 9 8 9 10 6 3 2 3 3 3 4 2 6 6 9 7 10 7 8 10 8 13 8 4 5 9 7 4 3 5 1 3 4 1 4 2 6 6 4 13 5 4 4 3 4 2 5 8 6 9 5 4 10 3 4 2 2 8 8 10 11 9 8 7 9 4 1 10 11 12 15 11 11 11 17 11 17 16 15 10
7 6 6 6 6 6 7 8 9 9 9 6 3 2 1 2 2 3 3 4 6 7 4 6 5 6 8 11 11 9 12 5 2 6 8 7 4 4 1 2 1 3 1 4 5 9 4 8 2 3 2 2 2 3 7 4 1 5 10 2 2 2 2 4 9 12 14 13 11 5 7 6 11 7 5 8 10 14 15 12 13 16 14 16 16 16 15
7 7 6 6 6 5 5 6 7 7 11 5 2 1 1 3 2 2 2 3 9 8 7 10 6 8 5 7 3 13 14 8 5 9 5 4 7 3 7 6 6 4 6 9 10 11 9 7 8 6 9 2 3 8 5 4 4 3 2 4 4 2 5 10 13 16 15 15 16 17 16 18 18 18 19 15 12 8 9 10 17 11 12 18 9 13 13
7 7 7 7 7 6 6 6 4 6 7 8 2 1 2 2 4 1 4 2 4 9 9 11 11 7 5 6 2 10 8 7 8 0 4 1 1 4 3 9 12 11 12 6 6 3 8 4 10 6 3 3 5 6 3 2 4 6 1 2 1 1 6 8 11 13 13 15 18 16 16 15 16 17 17 19 19 18 20 23 22 18 17 21 17 16 19
8 8 8 8 7 6 7 6 6 5 5 4 2 1 5 1 2 2 3 1 4 4 3 4 5 11 14 8 10 11 13 14 9 4 1 1 3 7 7 5 7 8 3 5 5 5 8 8 3 0 2 2 4 4 3 1 6 6 4 4 2 1 5 10 10 11 7 10 12 12 15 16 16 15 17 19 21 23 25 26 26 25 23 22 20 20 21
10 9 9 8 8 8 7 7 6 5 3 3 1 2 1 3 0 4 4 2 5 4 3 3 3 8 10 7 7 14 16 17 11 3 5 4 4 1 9 6 1 2 2 4 5 3 3 1 4 1 5 5 0 2 3 6 3 5 5 4 4 3 5 10 9 11 13 11 13 11 13 14 18 17 17 17 19 21 21 20 19 22 24 23 27 24 21
11 10 10 10 9 9 9 8 7 6 4 1 2 3 2 2 1 1 4 4 3 1 2 5 4 4 3 12 10 5 6 9 2 4 1 5 4 2 3 4 1 1 3 3 6 1 3 2 1 2 1 2 2 3 5 6 12 11 3 0 2 3 5 4 8 11 10 8 12 12 12 10 13 14 15 18 18 19 15 15 15 17 18 15 14 11 7
13 12 11 11 10 10 10 9 8 8 2 4 1 1 2 1 2 1 1 4 3 1 3 1 2 8 6 6 3 5 4 3 3 4 2 7 6 6 5 2 3 3 2 5 2 4 2 3 4 5 6 8 8 8 10 9 8 6 7 3 5 3 4 6 8 12 14 16 15 15 13 15 17 19 19 17 16 17 17 12 9 9 5 6 3 3 5
13 13 13 12 12 12 12 11 10 11 4 3 2 2 0 0 1 2 0 4 5 5 0 5 5 3 4 5 3 4 1 5 7 1 2 5 5 7 4 2 2 2 5 1 3 3 4 4 6 4 7 9 10 9 10 12 13 12 9 4 3 5 6 8 6 11 12 15 17 11 11 15 15 3 5 6 3 7 7 4 6 11 11 8 8 3 4
14 14 15 14 14 14 13 13 13 13 7 6 4 3 3 2 2 1 2 7 8 3 5 7 5 3 3 3 2 3 4 4 2 3 4 4 5 2 2 2 3 2 2 2 1 4 6 3 3 3 5 9 10 11 12 15 17 14 12 12 11 14 11 11 5 9 12 12 10 12 17 17 1 6 5 3 8 13 12 7 7 6 7 8 7 7 7
15 15 15 15 15 15 15 15 15 15 10 6 5 5 3 3 3 2 2 2 4 4 3 5 3 2 4 3 6 3 2 2 2 4 3 6 8 3 1 1 2 1 3 3 2 4 3 7 7 5 6 4 7 12 15 15 17 16 11 12 12 11 11 6 4 4 5 4 6 10 14 1 4 4 7 3 5 6 9 6 7 5 5 6 5 5 5
16 17 16 15 16 16 16 16 16 15 15 9 6 6 3 3 3 2 3 2 5 4 4 8 10 13 10 12 8 8 6 8 5 2 6 2 4 3 2 0 2 0 3 2 2 2 4 1 5 5 6 1 5 3 8 11 13 15 13 12 11 12 8 5 9 6 10 9 12 17 10 8 3 6 6 7 4 6 7 4 3 5 2 4 2 2 4
16 16 17 18 18 18 17 17 17 17 18 12 6 4 5 4 5 4 2 4 6 5 4 6 1 4 6 5 4 5 6 6 5 6 4 0 1 2 2 2 2 1 2 2 1 1 2 1 1 1 3 1 2 4 4 2 3 3 9 5 6 8 11 4 6 5 8 7 6 7 3 7 1 4 4 7 6 7 6 4 4 6 0 2 3 2 2
19 19 18 18 18 17 17 17 17 16 17 13 7 6 6 7 5 3 4 4 3 8 9 13 7 2 2 3 3 5 4 3 3 3 4 3 2 5 3 2 1 2 1 1 2 3 3 5 6 4 6 3 5 1 4 1 5 3 4 4 4 1 2 5 6 5 7 10 9 7 7 4 6 5 4 8 8 6 2 5 6 5 3 6 4 4 3
19 19 21 21 21 20 21 20 20 20 19 17 6 7 6 7 7 6 4 3 6 10 2 3 2 2 5 2 1 0 4 4 4 3 3 5 4 1 3 3 2 2 4 2 3 2 3 4 3 4 4 1 1 4 3 0 2 3 5 7 7 8 5 2 5 7 6 5 8 11 3 4 3 2 6 8 8 6 3 7 4 6 6 4 4 4 3
20 19 19 19 20 22 22 22 20 21 20 19 8 6 5 7 8 6 3 5 8 8 10 6 3 4 7 4 4 3 3 0 1 0 1 3 1 2 2 1 2 4 5 4 2 3 4 4 5 6 7 3 3 3 6 3 2 3 2 1 1 1 3 2 8 7 9 10 8 5 8 2 0 2 5 8 5 1 9 16 3 6 6 4 4 4 4
20 20 18 19 21 21 21 21 23 22 21 19 7 2 5 8 9 9 5 5 7 9 3 8 11 9 3 2 5 3 4 5 2 1 3 5 4 2 4 3 2 1 1 5 2 2 3 4 0 2 3 5 3 6 4 6 7 2 2 3 0 1 2 4 1 3 6 6 6 8 6 4 2 5 3 5 3 6 10 2 2 3 6 3 5 5 6
21 21 21 21 21 21 21 21 21 22 23 23 12 6 3 7 10 12 10 8 5 9 9 5 5 11 4 6 5 3 2 1 3 3 3 7 2 2 3 4 3 4 2 1 0 3 2 5 4 1 2 5 4 4 2 5 2 3 4 2 3 5 2 4 3 3 1 1 4 7 10 2 6 3 12 2 2 7 5 4 4 5 6 5 5 6 8
21 20 20 21 20 19 19 21 22 22 23 22 15 6 5 5 8 9 9 9 6 8 11 5 4 11 7 8 11 9 8 10 6 5 7 8 4 3 3 3 4 4 5 4 6 5 4 2 3 3 4 3 6 1 5 1 4 6 4 4 3 3 2 2 3 4 9 6 8 6 3 2 5 5 5 5 9 7 7 5 9 4 6 5 6 6 8
21 21 21 21 21 22 23 22 21 21 22 21 16 7 9 6 7 9 8 7 7 10 2 1 4 6 8 9 10 10 11 10 11 9 6 5 2 7 5 3 4 3 3 4 2 2 2 2 1 1 3 4 1 6 3 2 5 3 2 1 6 5 9 7 8 3 6 6 5 6 5 9 13 12 10 12 13 7 5 6 8 8 5 6 5 9 7
20 20 21 21 20 21 21 20 21 23 23 22 16 7 10 6 7 7 8 6 4 3 2 2 2 4 2 3 3 7 9 8 7 4 6 6 7 6 9 7 8 3 1 4 6 5 6 6 8 3 1 3 8 6 2 8 4 3 6 5 7 2 3 3 1 7 6 4 9 11 11 13 15 12 11 9 8 7 5 5 6 7 9 6 8 6 6
20 20 20 20 20 20 21 22 23 22 22 23 16 7 9 8 7 7 3 3 4 5 6 8 6 9 11 13 13 6 4 2 5 9 7 8 9 9 3 5 1 2 4 8 6 6 5 3 6 3 9 5 5 4 8 7 8 5 3 5 3 5 4 2 6 8 4 7 5 9 13 14 14 12 9 6 7 10 5 5 8 11 8 5 4 6 6
20 20 20 20 20 21 21 21 21 20 22 23 19 8 2 2 6 10 8 7 6 7 9 3 13 16 10 9 5 7 10 10 9 9 7 9 13 12 14 8 7 10 10 4 1 2 1 4 3 1 10 5 8 9 5 6 7 9 8 8 2 8 6 6 11 9 8 13 13 9 11 12 8 8 9 12 14 11 8 10 10 7 3 3 4 3 6
20 20 20 20 20 21 20 20 20 21 22 23 15 7 8 9 8 9 6 3 1 2 7 11 6 1 4 5 8 8 8 12 14 13 13 14 15 16 15 4 1 3 4 2 6 10 9 4 4 4 7 7 8 7 7 10 7 3 10 11 12 5 5 5 5 7 9 10 10 16 15 10 13 16 14 12 12 12 10 7 5 3 4 5 4 4 5
19 19 19 19 18 18 19 20 20 21 20 20 14 6 8 5 8 12 10 8 4 4 8 10 3 2 1 8 2 2 4 9 9 11 12 12 12 11 10 10 10 7 6 4 2 2 1 4 2 9 7 6 3 4 3 1 6 5 7 9 1 2 9 10 2 4 8 11 15 11 6 8 9 10 11 6 5 5 6 3 4 4 4 5 6 7 4
20 20 19 18 19 19 19 20 19 19 19 20 13 6 6 8 10 11 10 10 12 9 0 1 2 6 2 3 4 6 6 7 9 9 11 12 14 13 12 13 11 9 8 8 8 6 5 6 10 4 3 2 4 8 6 3 3 4 8 11 8 11 14 9 8 10 13 16 16 10 10 12 12 15 8 3 1 2 3 4 4 4 2 1 2 7 10
20 19 19 19 18 18 18 18 18 18 20 16 4 3 2 5 6 9 10 7 6 5 6 4 1 1 5 4 3 8 6 9 10 11 11 12 12 12 13 14 12 11 10 10 8 9 9 9 6 6 6 3 3 4 5 7 10 12 13 15 15 13 11 14 17 17 15 13 10 5 5 9 13 6 2 2 0 1 3 2 0 0 1 2 5 7 9
21 19 18 18 18 18 18 18 18 17 16 3 5 2 4 5 9 10 9 9 7 4 5 7 8 6 1 1 4 5 7 9 10 11 12 11 11 11 12 11 11 11 10 8 8 10 10 8 9 8 6 6 5 2 5 6 10 12 13 13 11 12 14 16 15 14 14 12 5 3 4 8 2 2 0 1 4 3 0 1 2 4 5 4 8 8 5
21 20 19 18 18 18 19 17 18 17 11 4 4 4 5 8 4 10 16 11 9 6 2 2 6 2 5 2 2 8 9 10 9 11 14 13 11 12 10 8 9 8 8 8 9 12 6 6 5 5 4 9 8 3 6 7 11 11 9 9 13 15 15 15 11 6 7 8 3 1 2 6 3 3 3 3 4 5 4 3 3 4 6 7 8 7 8
21 19 19 18 17 17 17 18 17 14 6 9 9 7 2 4 5 12 17 12 10 5 4 4 3 2 3 2 2 4 10 12 9 5 3 5 8 8 7 9 9 8 10 9 8 4 8 8 7 11 9 10 9 1 4 9 12 15 12 13 13 12 8 5 5 1 6 5 3 6 9 9 2 2 3 4 5 4 4 7 7 5 6 6 8 7 8
20 20 19 18 18 18 17 17 18 11 5 9 12 11 3 4 8 14 12 10 7 3 2 3 4 1 1 5 1 2 3 1 0 4 5 5 6 4 6 6 7 5 8 8 6 6 5 7 8 9 13 5 4 3 6 12 15 14 14 15 11 2 1 3 6 7 5 6 4 3 9 5 4 6 7 7 5 4 5 6 6 6 7 9 11 11 8
20 19 18 17 16 16 17 16 14 13 10 6 6 10 6 5 10 16 12 7 3 2 2 3 3 6 6 2 2 3 5 6 4 7 5 3 3 5 4 3 6 5 6 11 8 6 3 2 9 6 3 4 8 3 7 12 12 15 16 11 3 2 2 3 4 5 5 4 4 2 5 7 7 6 6 5 5 2 3 4 5 7 9 9 12 11 10
20 18 17 16 15 14 13 13 5 4 5 6 5 1 9 16 12 19 18 8 5 3 3 3 2 5 5 1 5 5 3 4 4 6 8 5 4 8 3 2 2 6 6 6 4 8 9 9 4 3 9 3 3 8 8 14 16 15 11 5 4 4 1 1 1 5 5 5 5 5 5 5 6 6 5 7 8 7 7 4 2 4 10 13 13 12 9
17 17 15 14 12 9 2 3 3 5 5 4 3 7 18 18 16 13 12 7 5 4 4 4 5 7 6 8 5 3 4 4 3 1 4 1 1 1 2 3 5 7 1 4 6 7 9 4 5 7 5 4 9 10 11 5 7 2 3 3 6 6 3 2 5 6 6 5 7 5 2 1 4 7 8 8 7 5 5 6 6 4 9 13 15 14 12
15 15 13 3 4 3 2 3 2 4 3 4 6 11 17 11 1 1 5 5 3 1 5 3 4 7 9 5 0 3 4 4 4 3 1 2 5 0 2 3 9 1 1 2 0 7 9 6 5 7 5 11 11 2 5 4 4 3 3 4 5 4 3 3 4 6 5 6 4 4 5 7 8 5 8 10 8 5 6 9 8 8 12 14 14 13 13
16 10 4 4 2 2 3 4 4 5 9 11 11 4 2 5 4 4 2 4 2 5 4 3 9 2 3 5 6 3 4 5 2 6 3 2 1 3 1 2 5 4 7 5 8 5 2 3 6 9 11 1 4 5 4 5 5 4 5 4 4 3 3 4 4 5 6 7 5 8 10 9 9 5 7 12 9 11 10 8 10 8 9 11 12 12 15
12 3 3 3 3 4 5 3 6 14 7 3 2 1 3 1 3 2 4 2 2 4 3 7 10 8 8 7 5 1 7 5 2 1 4 4 4 5 2 2 3 2 4 0 7 8 3 3 2 3 11 4 3 2 2 6 5 4 4 3 4 3 3 3 4 4 0 2 4 3 3 7 11 14 6 9 12 11 9 10 10 9 9 11 12 13 14
5 4 5 4 6 4 2 1 7 9 2 5 1 2 3 2 5 3 2 2 1 3 1 6 4 6 11 12 9 9 3 4 9 9 8 4 1 4 2 1 2 3 3 4 4 3 4 4 2 1 8 4 4 4 3 3 4 3 3 2 1 3 2 2 2 3 3 5 7 7 6 8 8 11 12 12 12 16 16 10 8 10 12 13 13 14 15
4 4 3 5 3 2 1 1 3 1 3 3 2 1 1 2 2 1 2 3 3 4 1 3 3 3 5 7 7 11 6 4 2 2 3 5 2 4 2 2 0 3 2 2 2 3 2 1 1 5 7 2 5 3 2 1 1 2 1 1 1 2 0 3 4 4 4 5 5 6 7 7 8 9 10 11 12 13 14 15 16 13 13 14 15 15 13
7 7 4 5 3 3 3 3 1 3 1 2 3 4 4 2 1 1 2 5 6 2 3 3 2 7 7 12 10 5 3 1 2 1 2 2 2 4 3 0 1 3 4 4 3 1 2 2 1 4 2 3 2 2 2 0 0 1 2 1 2 1 2 4 4 5 4 6 6 7 7 7 9 10 9 10 12 13 14 16 17 16 15 15 13 14 13
11 8 4 4 2 1 1 2 3 2 4 3 3 2 3 3 3 5 3 1 2 2 3 1 2 1 2 3 2 0 3 1 2 1 2 3 1 3 2 0 1 1 3 1 2 1 2 4 3 6 4 4 2 2 1 1 1 3 2 3 2 2 4 5 5 6 6 7 8 8 9 9 10 9 9 11 13 18 16 15 16 16 15 14 14 13 13
6 3 2 0 3 3 3 5 2 3 3 2 3 5 3 3 2 1 1 3 2 1 4 7 6 7 6 0 4 1 2 1 3 2 0 1 2 1 1 1 3 4 3 1 1 2 3 3 3 1 2 0 1 1 1 2 3 3 3 2 2 4 6 4 6 6 7 6 6 7 8 9 11 10 9 10 11 17 20 18 14 14 14 14 14 13 13
6 1 2 2 3 2 4 3 2 3 7 6 4 3 4 7 4 5 8 3 3 6 0 1 3 6 5 2 3 1 2 3 3 4 2 2 1 0 3 4 2 1 1 3 1 3 3 6 1 1 1 1 0 2 1 3 3 4 5 5 5 4 5 6 7 6 8 7 8 8 9 9 10 11 10 11 11 10 13 16 14 12 13 13 13 13 13
5 6 4 3 4 3 3 2 2 1 3 2 5 6 6 6 7 8 2 3 3 2 6 4 2 3 2 0 4 4 1 2 2 2 2 1 3 3 4 0 2 1 1 2 1 4 7 4 5 3 1 2 2 2 3 4 4 4 3 6 6 5 5 6 6 6 8 9 8 9 10 9 10 11 12 11 10 11 11 12 11 12 12 12 13 14 13
2 1 1 1 2 2 3 3 5 4 2 1 2 4 4 5 3 3 2 0 3 1 2 1 1 3 5 2 1 2 1 0 2 2 3 1 3 1 1 2 3 2 2 3 4 6 5 2 4 1 1 1 2 3 4 5 5 4 7 6 6 6 5 5 7 8 8 8 10 11 11 10 10 10 11 12 11 9 11 11 12 11 11 12 13 13 13
4 1 2 3 4 3 7 4 3 3 1 1 0 0 2 1 5 2 0 1 0 0 3 4 4 1 2 2 3 3 2 1 1 3 2 1 2 2 0 0 1 1 3 4 7 3 2 2 2 0 1 1 2 4 4 5 5 6 6 6 6 6 7 7 8 9 8 9 10 10 10 10 10 10 11 12 12 11 10 10 10 10 10 11 12 12 12
2 3 4 3 1 2 2 4 8 5 0 2 1 2 1 2 3 2 1 0 2 3 2 2 2 4 1 1 3 2 2 1 2 3 1 0 2 3 3 3 1 2 5 4 3 2 3 2 0 0 2 2 3 4 6 5 5 5 6 6 6 8 7 8 8 9 9 9 9 10 11 10 10 10 10 10 11 11 9 9 10 10 11 11 11 11 11
2 0 2 3 3 4 1 2 7 3 1 0 0 1 0 2 4 1 0 1 0 0 1 2 3 1 1 2 0 0 1 1 2 0 2 2 3 1 3 1 4 7 3 1 3 2 1 1 1 1 3 3 4 4 5 6 5 6 6 6 7 7 8 9 10 9 9 9 10 11 11 10 10 9 10 11 11 11 11 11 11 11 10 9 9 10 10
3 3 1 1 2 4 7 8 10 9 8 8 6 5 4 4 3 1 1 1 0 2 3 3 2 2 1 1 1 1 2 1 1 2 3 3 1 3 4 5 5 5 3 2 2 1 1 1 1 3 3 5 4 6 5 6 6 7 8 8 8 8 8 8 9 9 9 9 10 10 11 11 11 10 11 10 10 11 11 11 10 9 7 8 7 8 8
2 3 2 0 2 3 2 1 5 3 2 4 5 1 1 3 1 0 2 1 1 6 5 2 3 2 2 3 3 1 1 2 1 1 1 4 3 4 4 5 4 5 6 5 4 3 2 3 2 4 4 5 5 5 5 6 7 8 7 8 8 8 8 9 9 9 9 9 10 10 11 11 11 11 10 10 11 10 9 7 5 6 7 6 6 7 7
Wind_Direction
313 311 318 334 340 340 354 357 354 354 355 22 347 293 203 213 226 24 157 180 154 150 217 209 213 223 250 14 294 182 308 221 231 212 208 226 208 240 231 211 242 234 243 214 242 195 251 176 228 205 225 230 217 220 245 156 318 20 281 294 252 162 201 203 260 271 286 283 282 279 216 245 314 276 239 231 234 221 233 238 240 249 264 263 260 246 267
305 311 308 312 324 332 341 350 0 355 5 20 329 280 255 273 261 330 179 200 222 186 208 216 220 229 256 240 254 267 209 236 253 226 221 168 245 200 206 321 222 252 216 223 239 163 276 201 237 251 203 261 216 238 244 231 247 204 232 221 277 279 251 231 286 273 296 283 309 284 274 176 196 244 241 226 239 250 255 265 283 270 236 256 263 260 236
302 315 310 305 316 325 330 342 353 355 1 13 348 333 313 337 304 244 192 199 183 218 207 231 223 224 238 226 249 247 244 228 235 252 240 220 210 190 260 215 112 250 208 241 246 215 230 268 261 230 198 237 276 283 264 266 257 239 10 40 9 289 257 217 254 262 266 267 250 261 275 254 245 236 248 246 237 241 256 261 249 253 238 234 245 258 247
274 284 294 300 307 316 320 326 338 352 344 22 60 305 345 171 245 279 182 215 218 252 270 272 217 235 226 237 235 241 254 250 211 179 254 217 235 229 242 311 132 245 266 263 231 253 225 226 269 262 300 274 332 85 355 70 275 327 312 324 149 218 293 220 242 250 257 260 272 275 305 315 283 269 238 260 253 249 242 254 258 254 258 246 245 254 266
278 277 282 290 291 296 310 310 320 5 2 52 112 338 183 309 246 202 237 203 236 244 210 234 217 241 177 252 153 234 239 252 284 168 274 209 211 221 225 234 238 234 216 244 258 246 263 245 258 241 260 247 268 326 1 331 35 61 95 68 108 130 229 236 248 250 257 266 274 275 271 272 275 279 275 270 262 252 254 238 252 273 286 263 251 257 264
272 273 283 295 296 296 300 298 296 310 350 17 70 359 234 144 256 71 230 212 217 227 235 228 228 231 196 240 207 251 247 234 241 208 240 134 217 185 336 237 232 236 235 242 248 232 248 248 253 257 258 303 326 339 333 14 355 35 28 4 106 182 252 268 259 258 252 260 266 272 276 272 275 272 278 276 275 275 268 264 262 258 253 266 268 272 271
257 268 274 272 277 282 284 294 301 302 325 65 97 81 291 140 311 277 316 84 270 277 325 322 245 236 218 237 216 243 241 246 231 203 301 188 254 207 244 217 234 233 236 199 233 232 268 257 277 317 14 11 349 333 323 51 36 31 16 6 157 198 237 250 253 276 277 280 274 273 268 271 269 267 262 262 266 266 264 263 264 267 269 270 276 273 271
253 259 258 257 260 266 270 280 275 279 275 70 75 215 129 290 22 306 3 338 295 307 330 323 318 250 236 245 204 233 234 244 239 233 201 242 254 197 238 203 112 150 126 174 204 205 255 144 248 48 60 331 16 302 266 305 1 12 340 328 273 206 279 1 328 310 292 285 280 275 268 267 272 272 272 270 267 266 267 275 283 281 274 273 268 266 267
257 253 252 254 255 255 262 258 261 268 270 34 192 280 170 244 76 272 327 309 268 313 319 264 275 262 237 247 242 255 249 259 265 252 259 222 231 182 183 86 72 156 186 220 218 221 123 82 233 333 331 245 325 37 287 351 316 315 305 253 307 15 289 320 291 295 274 278 278 281 286 282 278 282 277 272 268 271 269 265 255 260 277 294 308 307 355
256 250 250 253 253 253 252 256 252 256 204 112 267 160 279 61 295 145 240 263 275 41 288 297 295 242 237 253 256 258 298 27 359 301 49 52 93 92 97 26 90 292 183 244 183 117 110 205 213 196 208 215 242 222 233 254 255 288 280 237 271 239 286 291 297 283 274 281 283 293 302 302 286 269 273 277 268 263 266 275 348 355 321 275 257 86 343
251 249 250 249 251 248 249 246 244 241 159 159 166 241 125 121 282 9 304 260 265 213 249 283 235 276 58 353 334 352 79 20 29 200 279 102 91 94 76 50 348 216 259 103 116 187 207 217 230 228 232 232 238 239 236 237 233 230 252 287 247 246 233 259 246 263 285 290 290 307 303 272 264 4 30 71 54 40 41 15 360 4 37 65 82 70 358
247 251 247 244 244 245 245 243 240 237 185 197 148 197 197 125 74 90 109 237 256 121 165 229 218 281 353 324 34 308 336 354 341 23 240 290 286 25 145 196 244 252 116 135 181 215 235 237 221 235 237 248 247 247 241 239 241 228 221 227 251 257 261 257 240 258 269 278 296 292 262 261 353 90 56 103 103 90 98 86 39 23 42 57 53 37 14
245 245 245 247 248 245 243 239 233 231 207 165 149 207 213 147 139 159 151 211 254 244 221 257 274 244 259 325 313 254 280 274 275 255 243 264 290 313 254 208 203 260 78 33 5 359 352 295 308 270 270 247 245 244 249 247 249 244 228 221 225 242 250 265 249 242 271 253 233 249 257 214 141 103 48 350 143 94 131 112 68 39 52 58 43 19 351
255 245 243 241 239 238 239 239 239 238 229 162 175 193 168 142 144 180 171 166 265 238 226 276 272 269 273 277 274 279 300 288 276 266 285 229 268 283 315 281 215 77 144 163 42 341 347 22 324 7 303 8 346 316 247 245 245 245 247 226 213 232 251 237 269 232 257 241 245 249 278 261 184 9 0 22 17 323 349 305 103 93 137 105 360 345 342
254 261 248 234 232 235 231 232 236 234 235 188 174 171 178 180 164 170 222 244 255 276 205 234 229 213 237 253 248 277 270 280 296 274 240 346 337 220 171 246 259 354 51 63 359 18 179 209 310 268 310 328 280 256 327 317 302 212 225 213 190 194 215 244 260 271 246 264 292 290 259 246 138 227 240 266 227 248 229 225 245 132 306 168 141 300 310
251 245 250 249 246 245 243 242 240 237 238 218 160 191 198 188 184 174 191 208 248 259 246 228 233 188 194 231 221 207 236 246 240 274 294 277 263 314 291 228 273 69 19 110 200 168 220 186 224 213 229 217 241 339 291 10 330 301 101 116 97 162 188 220 240 264 308 289 275 274 281 293 127 253 245 250 259 273 226 184 225 142 152 221 145 227 248
251 250 246 244 244 243 243 241 239 236 236 229 193 189 211 179 171 177 179 225 218 231 57 98 218 215 238 284 238 270 233 229 231 243 269 269 251 253 299 342 347 125 200 104 267 166 218 227 209 212 264 232 357 210 254 27 232 314 318 15 12 354 315 348 256 256 234 251 265 269 270 276 172 177 244 238 277 248 178 275 265 129 207 195 191 223 252
252 251 249 248 246 244 243 242 240 238 236 230 201 182 211 185 178 153 193 193 233 253 239 164 133 184 211 187 220 220 78 50 34 247 153 256 359 286 268 346 278 279 179 158 220 177 211 199 209 223 239 241 173 275 245 276 259 220 254 241 299 186 299 212 239 238 258 261 270 282 267 253 186 281 272 293 283 89 291 270 299 331 309 229 187 229 241
254 251 249 248 247 244 243 240 240 241 237 231 208 133 228 185 178 177 171 207 217 245 200 166 209 224 216 111 187 176 189 168 163 124 277 348 262 217 160 231 162 282 18 168 46 153 188 250 108 152 204 285 230 201 244 221 241 15 137 324 355 289 168 298 195 206 224 235 237 250 276 244 148 276 219 262 16 292 264 238 156 246 276 204 185 224 242
251 251 249 248 246 242 239 241 241 239 235 231 213 196 204 175 185 177 176 208 223 248 240 207 190 215 191 165 201 204 272 265 194 170 202 234 255 77 339 289 316 87 348 91 262 227 120 234 218 221 255 220 250 181 358 240 328 188 278 222 175 226 279 234 224 241 32 178 271 277 266 250 99 341 341 52 90 226 304 290 277 215 230 214 224 219 246
255 251 249 249 248 246 245 244 240 236 235 231 217 204 241 196 182 194 190 194 211 247 262 195 192 227 207 212 206 204 189 218 189 209 224 229 207 97 226 221 221 124 213 152 182 236 171 229 238 195 224 154 255 59 198 169 326 275 156 214 212 255 279 257 256 195 259 227 234 222 205 241 300 348 258 273 263 272 275 280 287 248 200 225 228 237 232
253 253 251 249 247 245 242 240 241 240 236 235 219 184 228 190 178 192 197 182 205 224 224 238 208 230 228 222 221 214 215 221 210 196 207 235 243 204 225 200 201 146 208 118 53 343 343 207 31 64 249 253 14 224 186 295 256 262 348 106 310 214 194 198 232 240 187 205 244 256 304 313 299 285 274 265 271 265 231 240 252 270 247 213 220 244 248
256 256 254 250 249 250 250 245 241 239 235 231 220 181 216 173 189 176 139 206 249 296 305 287 271 270 255 241 215 203 215 217 208 202 192 223 256 231 225 235 246 177 203 178 201 186 213 152 229 177 314 196 207 254 269 185 239 223 215 235 212 288 189 224 92 247 255 251 247 276 280 267 272 268 254 262 275 274 250 235 255 241 244 199 214 240 256
252 252 253 254 253 250 248 243 239 238 235 234 226 173 213 193 164 127 131 196 198 249 254 230 236 239 224 235 230 218 213 203 186 206 203 196 237 253 220 223 194 204 215 224 169 226 220 159 214 176 240 221 103 184 233 246 216 217 227 284 241 247 217 173 224 260 265 273 242 226 246 254 249 258 277 261 245 265 248 226 235 253 243 227 230 241 255
252 254 254 252 250 248 247 246 247 243 236 233 229 207 138 135 156 165 158 196 202 191 238 237 215 234 231 227 209 213 216 215 214 213 201 206 218 233 241 211 178 213 239 205 138 290 51 229 262 182 232 229 149 244 197 220 263 161 234 230 279 281 180 194 235 246 213 250 254 250 231 240 261 263 269 273 272 262 240 231 243 246 237 214 224 217 252
253 253 254 254 253 252 248 246 242 240 239 235 223 147 191 200 181 177 180 209 75 167 234 248 274 138 196 199 218 208 198 206 216 213 209 212 216 224 243 249 261 221 235 160 160 210 222 221 214 222 218 251 178 222 216 207 228 216 216 228 216 220 90 217 181 210 243 271 278 263 268 284 276 270 262 255 253 263 263 238 234 244 267 274 270 229 247
250 252 253 254 254 254 255 250 245 242 240 237 236 186 190 195 172 179 185 181 173 271 218 245 204 262 163 213 196 149 201 210 214 217 225 226 229 236 238 245 240 239 240 248 204 205 138 245 210 241 214 250 215 221 212 267 193 217 231 243 155 126 239 240 184 269 254 247 252 248 265 272 266 261 265 261 255 243 246 178 231 252 266 270 274 282 258
248 248 249 250 252 253 249 247 250 249 244 241 236 218 182 189 195 197 193 178 186 226 94 222 257 248 345 290 214 202 205 198 199 207 214 220 222 224 229 233 233 235 233 233 242 207 204 209 231 232 242 253 247 250 226 290 314 260 233 237 200 212 232 234 229 230 248 246 250 252 249 261 263 269 296 80 113 133 183 225 243 266 244 259 290 293 299
249 249 250 250 249 249 250 249 247 245 242 236 112 112 223 226 226 204 194 199 194 227 256 248 267 346 240 247 170 205 213 196 202 206 215 221 219 220 222 225 225 228 231 234 239 245 237 235 226 224 220 190 186 241 211 219 226 239 234 230 227 228 230 233 240 247 257 264 266 242 218 244 264 275 92 131 206 209 251 244 269 354 291 286 273 260 269
243 245 246 247 248 246 247 247 244 241 241 204 104 135 223 243 196 198 188 185 184 194 202 211 232 249 346 182 217 194 203 210 212 206 212 218 221 220 219 220 229 224 223 222 225 238 233 245 237 230 229 136 207 225 221 233 243 244 243 243 243 245 235 238 243 245 256 262 278 265 257 267 295 102 220 90 51 59 10 292 338 306 293 275 272 276 257
243 244 245 245 244 245 246 245 245 244 225 130 141 177 191 250 189 172 184 186 171 166 211 237 247 15 305 247 162 191 193 204 207 212 216 215 217 219 221 210 229 210 219 219 224 236 231 234 221 230 206 193 209 202 225 234 250 251 238 224 234 239 241 244 247 258 269 282 316 348 294 264 261 344 286 75 19 26 357 296 302 280 283 285 272 273 280
242 243 245 245 245 246 247 246 243 237 188 178 194 201 178 215 177 180 183 174 146 160 186 232 243 210 247 271 229 197 185 203 205 194 212 161 228 217 227 194 221 195 213 224 222 236 230 235 227 239 238 209 202 257 209 236 246 250 244 239 239 243 246 258 244 93 46 16 4 315 284 273 90 220 276 15 335 341 303 297 298 296 283 279 281 278 277
240 241 240 240 243 246 248 247 242 231 170 212 233 253 333 325 172 169 171 135 138 186 172 199 208 209 238 244 320 305 176 87 150 163 249 176 227 159 219 199 218 225 208 228 217 234 210 208 222 243 243 200 214 217 223 226 237 247 252 252 259 315 285 58 71 71 62 16 39 220 265 308 321 330 336 318 323 305 299 293 305 313 309 301 293 290 282
237 237 240 244 244 243 248 247 246 244 231 201 206 223 210 185 162 157 144 140 145 169 137 172 207 209 237 7 50 277 156 166 212 168 249 222 183 158 210 143 189 195 199 211 218 232 212 154 211 234 46 206 207 209 238 237 238 245 247 251 62 45 76 97 66 65 37 25 10 319 277 289 305 308 307 303 302 293 284 307 313 312 297 289 287 289 294
235 236 236 238 239 240 241 242 243 206 204 217 235 198 175 190 169 166 157 155 136 215 175 237 157 209 233 274 222 263 196 125 209 197 198 256 165 192 176 135 240 192 229 173 230 220 228 222 135 130 216 80 130 225 234 239 238 238 243 212 28 2 54 172 121 44 355 345 319 303 302 307 311 314 311 311 310 312 312 296 287 307 303 296 293 294 300
225 230 235 236 241 242 221 219 159 176 211 212 230 180 181 190 179 175 185 206 177 167 186 201 165 209 201 231 224 253 126 213 197 152 212 142 351 247 153 160 223 218 126 174 221 207 224 178 103 228 140 181 222 221 235 256 258 259 44 58 33 51 53 31 339 336 324 306 292 285 284 315 326 304 305 295 298 301 304 308 303 283 276 287 293 300 300
227 227 223 188 72 83 202 211 161 189 211 147 197 184 188 176 28 178 208 209 264 117 175 152 182 209 196 219 142 255 116 212 177 198 172 178 215 292 103 165 220 136 60 319 49 212 232 130 203 223 173 213 227 56 49 36 46 65 86 67 54 40 32 13 356 339 331 323 347 35 9 336 323 319 312 304 302 308 315 306 305 309 299 293 295 297 295
217 206 122 95 114 157 215 202 197 199 182 182 153 98 206 157 189 185 219 226 217 147 226 170 226 182 98 157 226 206 129 240 123 186 271 225 192 271 157 174 226 173 219 213 225 159 104 152 209 224 236 103 50 81 70 78 80 72 76 72 52 31 26 2 1 1 4 355 359 350 338 332 310 314 319 309 318 313 304 296 297 288 280 281 286 293 299
203 133 89 156 157 198 184 232 200 173 143 75 117 145 233 189 134 213 209 191 185 216 175 184 221 180 167 200 238 170 172 176 182 193 205 215 154 278 100 183 252 163 269 108 277 134 203 226 254 201 237 189 179 118 121 87 86 75 67 39 49 11 17 11 11 39 16 250 265 294 266 286 303 301 295 290 296 288 284 294 294 288 284 287 291 293 292
93 165 160 154 200 206 147 324 172 152 117 164 227 142 212 185 170 224 113 118 270 286 161 228 182 183 187 200 205 235 141 157 205 228 204 289 168 181 247 99 255 113 232 202 239 103 159 205 239 124 260 194 154 89 98 78 75 45 59 360 10 2 349 354 307 303 288 275 279 274 277 276 278 283 294 296 297 300 302 293 274 285 292 290 291 293 294
163 122 150 197 188 147 173 116 32 97 167 163 143 229 139 275 228 186 131 219 197 233 196 184 120 183 195 204 206 235 218 188 293 92 136 202 241 84 140 194 208 91 232 228 274 79 72 93 182 186 237 85 123 118 88 84 94 51 343 292 359 260 297 290 279 272 281 279 274 271 269 267 269 271 276 277 284 285 287 294 299 296 294 294 296 294 295
183 168 158 117 107 95 60 24 98 107 276 185 151 217 183 224 51 357 168 167 220 206 283 139 187 184 211 192 205 190 273 151 135 118 104 279 272 145 224 303 356 150 226 216 111 53 95 214 189 255 200 153 130 153 144 50 153 17 306 285 287 309 282 285 285 275 256 266 271 275 271 270 269 271 272 280 279 281 286 291 290 291 289 290 291 292 294
92 86 90 98 100 106 115 149 204 158 188 189 144 221 174 172 197 162 227 255 297 114 254 52 235 109 320 63 356 155 183 161 168 188 101 215 351 59 121 252 86 237 232 27 79 93 184 218 224 240 138 163 131 201 70 263 351 294 300 316 288 285 303 285 275 277 273 270 275 276 278 275 272 269 273 274 280 280 276 274 279 286 291 291 291 291 291
131 132 67 346 101 233 134 213 169 74 204 156 161 202 157 177 255 87 121 246 191 267 217 157 211 151 221 244 147 156 22 336 124 78 317 228 92 179 73 238 221 252 46 14 86 195 231 240 221 252 148 358 294 255 329 323 326 313 311 287 312 290 278 276 279 284 285 273 270 273 275 275 279 278 272 268 269 276 281 281 278 280 282 287 288 288 287
139 157 115 116 176 200 107 219 93 151 207 210 179 204 165 193 190 170 186 231 112 206 222 92 136 166 193 244 44 322 123 202 324 100 225 127 69 186 123 244 227 35 137 228 341 316 5 268 131 65 130 248 252 302 316 313 299 297 298 300 286 278 277 283 286 285 287 293 288 289 283 283 282 282 278 274 269 266 275 283 287 287 286 287 288 289 288
167 169 147 151 192 200 149 206 87 16 284 180 201 182 169 201 163 202 219 43 155 158 144 174 105 109 147 226 141 208 101 112 108 211 153 89 128 232 220 81 82 136 356 67 187 215 221 217 156 208 157 239 322 303 325 298 292 285 295 287 281 281 281 277 280 287 288 296 297 290 287 285 282 285 284 278 277 275 272 272 276 278 282 285 286 288 293
132 150 139 141 152 218 110 174 212 202 173 212 258 246 223 176 151 116 136 174 117 202 69 293 144 179 153 207 86 327 52 44 143 233 86 116 191 236 56 122 219 174 165 226 235 241 253 232 220 188 216 306 316 312 301 295 290 275 268 267 275 279 287 292 292 296 298 294 293 291 286 283 280 278 281 284 278 271 273 275 276 275 276 279 284 288 290
170 141 123 160 197 150 186 219 131 90 22 159 245 262 291 151 117 140 340 84 285 325 137 119 98 67 23 303 78 187 200 178 65 289 161 208 40 51 269 85 239 241 187 167 227 209 164 117 177 216 284 327 286 287 282 271 264 265 270 277 286 297 301 303 301 295 295 296 292 290 285 282 279 280 281 282 286 284 279 277 278 280 281 284 285 286 293
122 132 167 190 201 143 158 121 130 117 281 355 23 34 312 135 134 166 282 70 121 183 216 120 180 102 183 139 147 185 232 212 148 231 68 42 140 214 162 221 157 285 250 179 193 164 186 157 204 195 259 266 256 250 261 259 266 278 290 299 304 304 302 297 295 294 292 290 290 288 287 285 285 286 284 284 286 286 285 286 288 286 283 281 284 293 300
118 126 39 71 62 8 55 72 86 134 235 28 102 155 221 106 132 235 262 99 309 52 224 229 244 119 196 116 256 90 260 264 169 44 80 216 201 191 70 295 230 198 239 223 228 233 206 183 53 332 272 260 271 272 281 288 296 298 302 302 304 301 299 296 296 294 292 291 291 287 286 289 287 283 284 285 285 288 291 287 284 281 278 277 288 296 300
11 63 80 353 144 189 151 162 174 176 195 212 183 188 166 164 151 172 1 107 91 67 60 132 163 108 116 62 122 138 245 119 71 200 165 206 178 132 191 210 232 202 199 192 183 179 210 230 211 244 278 277 276 283 291 297 306 302 303 304 301 297 297 294 290 293 296 293 289 291 289 284 280 280 281 283 285 286 286 284 278 272 282 293 291 294 303
111 114 176 113 84 53 44 89 33 50 118 127 144 252 90 129 126 174 310 341 63 140 181 179 93 105 101 187 212 188 7 41 200 47 357 263 145 151 213 200 197 192 186 187 238 261 248 258 224 237 249 269 285 293 299 303 304 303 305 302 302 303 300 300 299 297 296 296 290 284 283 282 284 285 283 283 282 283 283 288 293 296 298 296 296 299 299